• In United Kingdom
  • List of Countries
  • For 7 days
  • Water Temperature
  • Satellite Maps
  • Weather Map
  • Weather Widgets
  • user-avatar
    Login

    Hourly Weather Ondjiwa

    Today, 23 October, Monday

    Time Temperature Precipitation Wind Pressure Humidity
    00:00 +27°C° 0 mm 4 mps 668 mmHg 43%
    01:00 +26°C° 0 mm 3 mps 668 mmHg 48%
    02:00 +25°C° 0.1 mm 2 mps 668 mmHg 50%
    03:00 +25°C° 0.1 mm 2 mps 667 mmHg 51%
    04:00 +25°C° 0.1 mm 2 mps 667 mmHg 53%
    05:00 +25°C° 0 mm 1 mps 668 mmHg 50%
    06:00 +26°C° 0 mm 1 mps 668 mmHg 48%
    07:00 +28°C° 0 mm 1 mps 669 mmHg 44%
    08:00 +30°C° 0 mm 2 mps 669 mmHg 38%
    09:00 +32°C° 0 mm 2 mps 670 mmHg 32%
    10:00 +35°C° 0 mm 3 mps 670 mmHg 25%
    11:00 +35°C° 0 mm 3 mps 669 mmHg 25%
    12:00 +36°C° 0 mm 3 mps 669 mmHg 24%
    13:00 +36°C° 0 mm 4 mps 668 mmHg 24%
    14:00 +36°C° 0 mm 3 mps 668 mmHg 24%
    15:00 +36°C° 0 mm 3 mps 667 mmHg 25%
    16:00 +36°C° 0 mm 3 mps 667 mmHg 25%
    17:00 +34°C° 0 mm 3 mps 667 mmHg 28%
    18:00 +33°C° 0 mm 3 mps 666 mmHg 31%
    19:00 +30°C° 0 mm 3 mps 666 mmHg 34%
    20:00 +29°C° 0 mm 3 mps 666 mmHg 37%
    21:00 +29°C° 0 mm 2 mps 667 mmHg 39%
    22:00 +28°C° 0 mm 2 mps 667 mmHg 41%
    23:00 +27°C° 0.4 mm 2 mps 667 mmHg 44%

    Tomorrow, 24 October, Tuesday

    Time Temperature Precipitation Wind Pressure Humidity
    00:00 +27°C° 0.4 mm 2 mps 667 mmHg 47%
    01:00 +26°C° 0.4 mm 3 mps 667 mmHg 50%
    02:00 +26°C° 0.6 mm 2 mps 667 mmHg 53%
    03:00 +25°C° 0.6 mm 2 mps 667 mmHg 56%
    04:00 +25°C° 0.6 mm 2 mps 667 mmHg 59%
    05:00 +25°C° 0.1 mm 2 mps 667 mmHg 57%
    06:00 +26°C° 0.1 mm 2 mps 668 mmHg 55%
    07:00 +26°C° 0.1 mm 2 mps 668 mmHg 53%
    08:00 +28°C° 0 mm 2 mps 669 mmHg 48%
    09:00 +30°C° 0 mm 3 mps 669 mmHg 42%
    10:00 +32°C° 0 mm 4 mps 669 mmHg 37%
    11:00 +34°C° 0 mm 4 mps 669 mmHg 33%
    12:00 +35°C° 0 mm 4 mps 668 mmHg 29%
    13:00 +36°C° 0 mm 4 mps 668 mmHg 26%
    14:00 +36°C° 0 mm 3 mps 667 mmHg 25%
    15:00 +36°C° 0 mm 3 mps 667 mmHg 24%
    16:00 +36°C° 0 mm 3 mps 666 mmHg 23%
    17:00 +35°C° 0.1 mm 2 mps 666 mmHg 25%
    18:00 +32°C° 0.1 mm 2 mps 667 mmHg 28%
    19:00 +31°C° 0.1 mm 2 mps 667 mmHg 31%
    20:00 +30°C° 0.1 mm 2 mps 667 mmHg 33%
    21:00 +30°C° 0.1 mm 2 mps 668 mmHg 35%
    22:00 +29°C° 0.1 mm 2 mps 669 mmHg 37%
    23:00 +28°C° 0.7 mm 2 mps 668 mmHg 44%

    Day after tomorrow, 25 October, Wednesday

    Time Temperature Precipitation Wind Pressure Humidity
    00:00 +27°C° 0.7 mm 2 mps 668 mmHg 50%
    01:00 +26°C° 0.7 mm 3 mps 668 mmHg 56%
    02:00 +26°C° 0.1 mm 3 mps 668 mmHg 57%
    03:00 +26°C° 0.1 mm 2 mps 668 mmHg 57%
    04:00 +25°C° 0.1 mm 2 mps 667 mmHg 57%
    05:00 +26°C° 0 mm 2 mps 668 mmHg 55%
    06:00 +26°C° 0 mm 1 mps 668 mmHg 54%
    07:00 +26°C° 0 mm 1 mps 669 mmHg 52%
    08:00 +28°C° 0 mm 1 mps 669 mmHg 47%
    09:00 +29°C° 0 mm 2 mps 669 mmHg 42%
    10:00 +31°C° 0 mm 2 mps 670 mmHg 38%
    11:00 +31°C° 0 mm 2 mps 669 mmHg 34%
    12:00 +32°C° 0 mm 2 mps 669 mmHg 31%
    13:00 +33°C° 0 mm 1 mps 668 mmHg 28%
    14:00 +33°C° 0 mm 1 mps 668 mmHg 28%
    15:00 +34°C° 0 mm 2 mps 667 mmHg 27%
    16:00 +34°C° 0 mm 2 mps 667 mmHg 27%
    17:00 +32°C° 0 mm 2 mps 667 mmHg 29%
    18:00 +31°C° 0 mm 1 mps 667 mmHg 32%
    19:00 +30°C° 0 mm 1 mps 667 mmHg 35%
    20:00 +30°C° 0.1 mm 2 mps 667 mmHg 36%
    21:00 +29°C° 0.1 mm 2 mps 668 mmHg 37%
    22:00 +29°C° 0.1 mm 2 mps 668 mmHg 39%
    23:00 +28°C° 0.4 mm 3 mps 668 mmHg 44%

    26 October, Thursday

    Time Temperature Precipitation Wind Pressure Humidity
    00:00 +27°C° 0.4 mm 3 mps 667 mmHg 48%
    01:00 +26°C° 0.4 mm 4 mps 667 mmHg 53%
    02:00 +26°C° 0.1 mm 3 mps 667 mmHg 55%
    03:00 +25°C° 0.1 mm 3 mps 666 mmHg 58%
    04:00 +25°C° 0.1 mm 2 mps 666 mmHg 60%
    05:00 +26°C° 0.1 mm 2 mps 667 mmHg 56%
    06:00 +26°C° 0.1 mm 2 mps 667 mmHg 53%
    07:00 +26°C° 0.1 mm 2 mps 668 mmHg 49%
    08:00 +29°C° 0 mm 2 mps 668 mmHg 42%
    09:00 +31°C° 0 mm 2 mps 669 mmHg 36%
    10:00 +34°C° 0 mm 1 mps 669 mmHg 29%
    11:00 +35°C° 0 mm 1 mps 669 mmHg 27%
    12:00 +37°C° 0 mm 2 mps 668 mmHg 24%
    13:00 +37°C° 0 mm 2 mps 667 mmHg 22%
    14:00 +37°C° 0 mm 2 mps 667 mmHg 23%
    15:00 +36°C° 0 mm 2 mps 666 mmHg 24%
    16:00 +36°C° 0 mm 2 mps 665 mmHg 25%
    17:00 +35°C° 0 mm 2 mps 666 mmHg 27%
    18:00 +34°C° 0 mm 2 mps 666 mmHg 28%
    19:00 +33°C° 0 mm 1 mps 666 mmHg 30%
    20:00 +32°C° 0 mm 2 mps 666 mmHg 31%
    21:00 +31°C° 0 mm 2 mps 666 mmHg 33%
    22:00 +31°C° 0 mm 2 mps 667 mmHg 34%
    23:00 +30°C° 0 mm 3 mps 666 mmHg 31%

    27 October, Friday

    Time Temperature Precipitation Wind Pressure Humidity
    00:00 +29°C° 0 mm 3 mps 666 mmHg 28%
    01:00 +28°C° 0 mm 4 mps 666 mmHg 24%
    02:00 +27°C° 0 mm 3 mps 666 mmHg 25%
    03:00 +26°C° 0 mm 3 mps 665 mmHg 25%
    04:00 +25°C° 0 mm 2 mps 665 mmHg 26%
    05:00 +26°C° 0 mm 2 mps 666 mmHg 24%
    06:00 +26°C° 0 mm 2 mps 667 mmHg 23%
    07:00 +27°C° 0 mm 2 mps 667 mmHg 21%
    08:00 +29°C° 0 mm 2 mps 667 mmHg 17%
    09:00 +31°C° 0 mm 2 mps 668 mmHg 13%
    10:00 +34°C° 0 mm 2 mps 668 mmHg 9%
    11:00 +36°C° 0 mm 2 mps 667 mmHg 9%
    12:00 +37°C° 0 mm 2 mps 667 mmHg 9%
    13:00 +38°C° 0 mm 2 mps 666 mmHg 9%
    14:00 +38°C° 0 mm 2 mps 666 mmHg 10%
    15:00 +38°C° 0 mm 2 mps 665 mmHg 10%
    16:00 +38°C° 0 mm 2 mps 664 mmHg 10%
    17:00 +37°C° 0 mm 2 mps 665 mmHg 11%
    18:00 +35°C° 0 mm 2 mps 665 mmHg 13%
    19:00 +32°C° 0 mm 2 mps 665 mmHg 14%
    20:00 +32°C° 0 mm 2 mps 665 mmHg 15%
    21:00 +31°C° 0 mm 2 mps 665 mmHg 15%
    22:00 +30°C° 0 mm 2 mps 665 mmHg 16%
    23:00 +29°C° 0 mm 3 mps 665 mmHg 17%

    28 October, Saturday

    Time Temperature Precipitation Wind Pressure Humidity
    00:00 +28°C° 0 mm 3 mps 665 mmHg 17%
    01:00 +28°C° 0 mm 4 mps 665 mmHg 18%
    02:00 +27°C° 0 mm 4 mps 665 mmHg 20%
    03:00 +26°C° 0 mm 3 mps 665 mmHg 22%
    04:00 +25°C° 0 mm 3 mps 664 mmHg 24%
    05:00 +25°C° 0 mm 2 mps 665 mmHg 24%
    06:00 +26°C° 0 mm 2 mps 666 mmHg 23%
    07:00 +27°C° 0 mm 2 mps 666 mmHg 23%
    08:00 +29°C° 0 mm 2 mps 667 mmHg 19%
    09:00 +31°C° 0 mm 2 mps 667 mmHg 16%
    10:00 +34°C° 0 mm 2 mps 667 mmHg 12%
    11:00 +36°C° 0 mm 2 mps 667 mmHg 11%
    12:00 +37°C° 0 mm 2 mps 666 mmHg 10%
    13:00 +38°C° 0 mm 2 mps 666 mmHg 9%
    14:00 +38°C° 0 mm 2 mps 665 mmHg 9%
    15:00 +38°C° 0 mm 2 mps 665 mmHg 9%
    16:00 +38°C° 0 mm 2 mps 664 mmHg 9%
    17:00 +37°C° 0 mm 2 mps 664 mmHg 11%
    18:00 +35°C° 0 mm 3 mps 664 mmHg 12%
    19:00 +33°C° 0 mm 3 mps 664 mmHg 13%
    20:00 +33°C° 0 mm 3 mps 664 mmHg 13%
    21:00 +31°C° 0 mm 2 mps 664 mmHg 14%
    22:00 +30°C° 0 mm 2 mps 664 mmHg 14%
    23:00 +29°C° 0 mm 3 mps 664 mmHg 15%

    29 October, Sunday

    Time Temperature Precipitation Wind Pressure Humidity
    00:00 +29°C° 0 mm 3 mps 664 mmHg 16%
    01:00 +28°C° 0 mm 3 mps 663 mmHg 17%
    02:00 +27°C° 0 mm 3 mps 664 mmHg 19%
    03:00 +26°C° 0 mm 3 mps 664 mmHg 21%
    04:00 +25°C° 0 mm 2 mps 664 mmHg 22%
    05:00 +26°C° 0 mm 3 mps 664 mmHg 22%
    06:00 +27°C° 0 mm 3 mps 665 mmHg 21%
    07:00 +28°C° 0 mm 3 mps 666 mmHg 21%
    08:00 +30°C° 0 mm 3 mps 666 mmHg 20%
    09:00 +34°C° 0 mm 3 mps 667 mmHg 19%
    10:00 +36°C° 0 mm 3 mps 667 mmHg 19%
    11:00 +37°C° 0 mm 3 mps 666 mmHg 17%
    12:00 +38°C° 0 mm 4 mps 666 mmHg 16%
    13:00 +41°C° 0 mm 5 mps 666 mmHg 15%
    14:00 +40°C° 0 mm 5 mps 665 mmHg 16%
    15:00 +39°C° 0 mm 5 mps 665 mmHg 16%
    16:00 +39°C° 0 mm 6 mps 664 mmHg 17%
    17:00 +36°C° 0 mm 6 mps 665 mmHg 24%
    18:00 +34°C° 0 mm 7 mps 665 mmHg 31%
    19:00 +32°C° 0 mm 8 mps 665 mmHg 38%
    20:00 +30°C° 0.1 mm 7 mps 666 mmHg 40%
    21:00 +29°C° 0.1 mm 7 mps 666 mmHg 43%
    22:00 +27°C° 0.1 mm 6 mps 667 mmHg 45%
    23:00 +27°C° 0 mm 5 mps 667 mmHg 45%
    Show more